Voltar ao catálogo

FENGYUN 1C DEB

AtivoSSO
NORAD 31191·DEBRIS·🇨🇳 China

Lançado May 10, 1999 de Taiyuan Satellite Launch Center

Loading…

Próximas Passagens (próximas 24 horas)

TLE

AtualizadoSource: Space-Track

Época: Sep 14, 2026, 13:26 UTC

1 31191U 99025BJV 26257.55982663  .00000675  00000-0  21219-3 0  9992
2 31191  98.7659 170.7710 0093196  93.7793 267.4057 14.41370483 19657

Acompanhe FENGYUN 1C DEB em tempo real com AllMySat

Download on the App Store